Reflectivity
-20 -20 -20 -20 -20 -20 -20 -20 -20 -20 -20 -20 -20 -20 -20 -20 -20 -20 -20 -20 -20 -20 -20 -20 -20 -20 -20 -20 -20 -20 -20 -20 -20 -20 -20 -20 -20 -20 -20 -20 -20 -20 -20 -20
-20 -20 -20 -20 -20 -20 -20 -20 -20 -20 -20 -20 -20 -20 -20 -20 -20 -20 -20 -20 -20 -20 -20 -20 -20 -20 -20 -20 -20 -20 -20 -20 -20 -20 -20 -20 -20 -20 -20 -20 -20 -20 -20 -20
-20 -20 -20 -20 -20 -20 -20 -20 -20 -20 -20 -20 -20 -20 -20 -20 -20 -20 -20 -20 -20 -20 -20 -20 -20 -20 -20 -20 -20 -20 -20 -20 -20 -20 -20 -20 -20 -20 -20 -20 -20 -20 -20 -20
-20 -20 -20 -20 -20 -20 -20 -20 -20 -20 -20 -20 -20 -20 -20 -20 -20 -20 -20 -20 -20 -20 -20 -20 -20 -20 -20 -20 -20 -20 -20 -20 -20 -20 -20 -20 -20 -20 -20 -20 -20 -20 -20 -20
-20 -20 -20 -20 -20 -20 -20 -20 -20 -20 -20 -20 -20 -20 -20 -20 -20 -20 -20 -20 -20 -20 -20 -20 -20 -20 -20 -20 -20 -20 -20 -20 -20 -20 -20 -20 -20 -20 -20 -20 -20 -20 -20 -20
-20 -20 -20 -20 -20 -20 -20 -20 -20 -20 -20 -20 -20 -20 -20 -20 -20 -20 -20 -20 -20 -20 -20 -20 -20 -20 -20 -20 -20 -20 -20 -20 -20 -20 -20 -20 -20 -20 -20 -20 -20 -20 -20 -20
-20 -20 -20 -20 -20 -20 -20 -20 -20 -20 -20 -20 -20 -20 -20 -20 -20 -20 -20 -20 -20 -20 -20 -20 -20 -20 -20 -20 -20 -20 -20 -20 -20 -20 -20 -20 -20 -20 -20 -20 -20 -20 -20 -20
-20 -20 -20 -20 -20 -20 -20 -20 -20 -20 -20 -20 -20 -20 -20 -20 -20 -20 -20 -20 -20 -20 -20 -20 -20 -20 -20 -20 -20 -20 -20 -20 -20 -20 -20 -20 -20 -20 -20 -20 -20 -20 -20 -20
-20 -20 -20 -20 -20 -20 -20 -20 -20 -20 -20 -20 -20 -20 -20 -20 -20 -20 -20 -20 -20 -20 -20 -20 -20 -20 -20 -20 -20 -20 -20 -20 -20 -20 -20 -20 -20 -20 -20 -20 -20 -20 -20 -20
-20 -20 -20 -20 -20 -20 -20 -20 -20 -20 -20 -20 -20 -20 -20 -20 -20 -20 -20 -20 -20 -20 -20 -20 -20 -20 -20 -20 -20 -20 -20 -20 -20 -20 -20 -20 -20 -20 -20 -20 -20 -20 -20 -20
-20 -20 -20 -20 -20 -20 -20 -20 -20 -20 -20 -20 -20 -20 -20 -20 -20 -20 -20 -20 -20 -20 -20 -20 -20 -20 -20 -20 -20 -20 -20 -20 -20 -20 -20 -20 -20 -20 -20 -20 -20 -20 -20 -20
-20 -20 -20 -20 -20 -20 -20 -20 -20 -20 -20 -20 -20 -20 -20 -20 -20 -20 -20 -20 -20 -20 -20 -20 -20 -20 -20 -20 -20 -20 -20 -20 -20 -20 -20 -20 -20 -20 -20 -20 -20 -20 -20 -20
-20 -20 -20 -20 -20 -20 -20 -20 -20 -20 -20 -20 -11 -20 -20 -20 -20 -20 -20 -20 -20 -20 -20 -20 -20 -20 -20 -20 -20 -20 -20 -20 -20 -20 -20 -20 -20 -20 -20 -20 -20 -20 -20 -20
-20 -20 -20 -20 -20 -20 -20 -20 -20 -20 -4 -20 -20 -20 -20 -20 -20 -20 -20 -20 -20 -20 -20 -20 -20 -20 -20 -20 -20 -20 -20 -20 -20 -20 -20 -20 -20 -20 -20 -20 -20 -20 -20 -20
-20 -20 -20 -20 -20 -20 -20 -20 -20 -20 -20 -19 -20 -20 -20 -20 -20 -20 -20 -20 -20 -20 -20 -20 -19 -10 -17 -20 -20 -20 -20 -20 -20 -20 -20 -20 -15 5 -20 -20 -17 -14 -4 -12
-20 -20 -20 -20 -20 -20 -20 -20 -20 -20 -20 -20 -20 -20 -20 -20 -20 -20 -20 -20 -20 -20 -20 -20 -20 -20 -20 -20 -20 -20 -20 -20 -20 -20 -20 -20 -20 -20 -20 -20 -20 -20 -20 -20
-20 -20 -20 -20 -20 -20 -20 -20 -20 -20 -20 -20 -20 -20 -20 -20 -20 -20 -20 -20 -20 -20 -19 -20 -20 -20 -20 -20 -20 -20 -20 -20 -20 -20 -20 -20 -20 -20 -20 -20 -20 -20 -20 -20
-20 -20 -20 -20 -20 -20 -20 -20 -20 -20 -20 -20 -20 -20 -20 -20 -20 -20 -20 -20 -20 -4 5 -11 -18 -8 -12 -20 -20 -20 -20 -20 -20 -20 -20 -20 -20 -20 -20 -20 -20 -20 -20 -20
-20 -20 -20 -20 -20 -20 -20 -20 -20 -20 -20 -20 -20 -20 -20 -20 -20 -20 -20 14 -11 -7 -16 -20 2 -4 -20 -20 -20 -20 -20 -20 -20 -20 -20 -20 -20 -20 -20 -20 -20 -20 -20 -20
-20 -20 -20 -20 -20 -4 -20 -20 -20 -20 -20 -20 -17 -20 -20 -18 11 9 31 22 15 -1 -13 -20 -20 -20 -20 -20 -20 -20 -20 -20 -20 -20 -20 -20 -20 -20 -20 -20 -20 -20 -20 -20
-20 -20 -20 -9 -19 -20 -20 -20 -17 -1 -6 26 19 0 -15 8 19 19 18 2 -11 -9 -13 -20 -20 -20 -20 -20 -20 -20 -20 -20 -20 -20 -20 -20 -20 -20 -20 -20 -20 -20 -20 -20
-20 -20 -20 -20 -20 -20 -20 -14 -9 -19 3 1 -17 -20 16 24 6 -1 -17 20 12 -20 -20 -20 -20 -20 -20 -20 -20 -20 -20 -20 -20 -20 -20 -20 -20 -20 -20 -20 -20 -20 -20 -20
-20 -20 -20 -10 -20 -20 -20 -20 -20 4 30 21 10 22 -9 -20 -20 -20 -20 -20 -20 -20 -20 -20 -20 -20 -20 -20 -20 -20 -20 -20 -20 -20 -20 -20 -20 -20 -20 -20 -20 -20 -20 -20
-20 -20 -20 -18 -20 -20 -20 -20 -20 -10 22 -1 -20 -20 -20 -20 -20 -20 -20 -20 -20 -20 -20 -20 -20 -20 -20 -20 -20 -20 -19 -19 -20 -20 -20 -20 -20 -20 -20 -20 -20 -20 -20 -20
-20 -19 -20 -7 -20 -20 -20 -18 10 19 -20 -20 -20 -20 -20 -20 -20 -20 -20 -20 -20 -20 -20 -20 -20 -20 -20 -20 -20 -7 -10 -20 -20 -20 -20 -20 -20 -20 -20 -20 -20 -20 -20 -20
-20 -20 15 3 3 11 15 4 22 17 -20 -20 -20 -20 -20 -20 -20 -20 -20 -20 -20 -20 -20 -20 -20 -20 -20 -18 -17 -20 -20 -20 -20 -20 -20 -20 -20 -20 -20 -20 -20 -20 -20 -20
Wind_Speed
6 9 5 2 1 3 3 2 2 3 2 5 3 6 9 10 9 8 6 6 7 6 3 3 3 1 4 5 7 8 5 2 3 3 3 2 3 4 4 4 7 9 9 10
6 4 0 5 4 2 2 3 2 3 1 1 5 4 4 9 6 5 7 8 7 6 4 3 2 2 2 4 5 7 7 6 4 2 2 2 3 3 5 6 8 8 9 9
5 0 2 2 4 4 1 2 2 3 6 2 4 2 6 4 5 5 6 4 4 6 6 4 4 6 9 9 8 7 6 6 6 6 3 3 2 3 3 9 9 11 12 11
5 3 3 3 4 1 2 2 3 3 1 1 4 3 4 5 3 2 2 3 3 4 5 7 7 9 8 7 8 10 10 10 9 7 6 6 5 6 6 8 9 11 12 12
0 2 4 5 2 1 2 1 1 1 3 2 5 0 2 3 2 2 3 3 4 6 7 8 8 9 10 9 9 8 7 8 7 6 6 5 6 5 6 8 12 13 12 12
2 2 3 2 2 1 4 2 3 3 2 2 1 3 2 3 5 4 2 5 8 8 6 7 8 7 8 6 6 5 6 7 7 7 8 8 8 9 10 13 12 12 11 10
5 3 4 3 4 3 8 3 1 2 3 1 1 1 2 7 7 5 6 7 8 8 9 8 7 6 6 7 8 7 8 9 10 8 7 8 10 12 15 15 12 16 11 11
3 1 4 5 2 2 4 3 2 1 2 4 2 0 4 5 6 6 9 7 8 7 6 5 2 1 3 5 7 8 10 11 12 11 10 10 11 9 10 12 12 11 11 7
2 2 3 4 3 2 1 5 1 6 2 2 3 1 5 5 11 10 8 8 8 8 6 3 2 4 5 8 12 11 11 11 9 9 7 9 10 12 12 15 14 10 8 3
1 2 2 3 1 6 4 4 1 4 2 3 5 4 3 2 4 2 4 6 6 6 9 9 9 10 7 7 7 7 6 8 8 8 6 8 11 11 12 12 13 10 3 1
1 1 2 1 4 1 3 2 5 4 1 2 3 5 5 5 3 1 3 0 3 6 8 9 10 11 9 6 8 8 7 8 8 7 9 10 10 11 11 9 8 5 4 4
1 3 1 2 1 1 1 3 3 2 2 0 1 8 3 6 3 2 6 3 4 6 8 9 10 9 6 8 10 10 9 9 6 8 8 8 8 9 8 8 7 7 6 6
2 2 3 2 2 2 1 2 4 4 2 7 3 6 3 6 5 6 4 6 8 10 11 10 10 8 10 11 10 10 8 6 9 9 7 6 7 6 6 7 8 9 9 8
4 2 4 4 3 2 5 5 5 5 4 4 13 19 21 18 14 8 7 6 11 12 10 7 8 10 10 9 8 9 7 7 7 5 4 4 4 4 6 7 8 7 7 7
3 3 3 5 8 5 10 12 11 12 12 8 13 15 19 15 11 7 6 11 13 13 10 10 9 7 8 9 9 7 9 7 6 5 5 6 6 4 3 4 5 6 8 9
2 2 1 4 5 4 9 13 12 13 13 13 18 20 16 10 3 5 11 12 12 9 6 7 8 7 8 9 9 9 9 5 4 4 4 5 4 7 9 10 10 9 10 9
0 4 1 4 5 8 8 4 4 3 6 4 6 7 5 3 4 13 15 11 5 4 5 9 10 9 8 10 9 11 8 4 2 0 4 5 7 8 7 8 8 9 8 8
5 3 1 3 4 1 4 2 5 7 13 8 8 6 5 8 14 11 8 6 5 7 10 11 9 10 10 10 11 7 3 3 3 4 6 7 7 7 8 9 8 8 7 8
3 5 2 2 3 7 12 6 2 4 7 3 4 8 12 16 11 1 5 4 2 10 12 10 10 10 9 10 8 5 6 6 6 6 6 6 6 7 7 8 8 8 8 7
4 4 2 2 4 6 4 1 2 3 6 3 8 15 21 13 12 6 3 7 13 13 11 12 11 8 8 8 6 7 9 7 8 6 5 5 5 6 7 7 8 6 6 6
1 1 5 6 5 9 6 4 2 2 3 4 9 14 9 5 2 4 6 13 13 14 15 13 9 8 8 8 7 7 6 7 7 5 5 4 5 5 6 6 6 6 7 6
3 3 5 2 4 8 2 2 1 3 6 9 9 5 7 6 6 8 11 12 14 15 16 14 9 9 7 7 7 7 8 8 6 6 5 4 5 4 5 6 6 7 7 8
5 6 3 8 7 2 3 7 3 2 2 4 4 1 4 1 8 11 10 14 14 14 13 11 9 11 9 8 7 9 11 6 7 6 5 5 5 5 6 7 7 7 7 7
3 4 5 1 7 12 9 3 4 2 3 3 2 2 6 8 10 13 12 11 11 12 13 12 11 12 11 8 6 8 9 7 6 6 5 4 5 6 7 5 5 6 7 7
5 4 4 6 15 10 2 3 3 4 4 3 6 7 8 9 12 12 10 12 11 11 12 12 12 11 11 9 9 7 7 4 6 6 4 4 3 5 6 5 5 5 5 6
5 7 4 7 7 4 5 4 3 5 3 1 5 8 9 9 12 10 12 11 9 12 12 13 13 11 9 8 7 7 5 5 5 5 3 2 3 3 4 5 6 3 5 8
Wind_Direction
18 68 65 34 352 138 147 162 248 256 184 326 350 316 358 0 45 56 72 104 120 103 34 7 10 103 142 153 167 186 188 21 355 3 340 328 344 330 303 295 293 281 275 273
48 72 212 106 54 102 132 207 257 252 304 335 351 5 354 30 41 46 85 90 104 111 109 88 100 99 73 99 46 38 36 27 18 343 325 305 307 303 301 316 311 308 298 294
104 70 63 107 45 41 2 104 26 298 335 79 329 86 22 34 58 51 59 94 124 128 128 134 90 59 38 41 27 27 32 41 46 26 1 333 295 299 322 342 333 331 321 312
73 7 67 68 79 49 7 74 291 256 253 230 343 145 25 357 55 38 111 135 94 41 15 17 22 35 34 48 64 78 70 50 40 28 26 24 3 344 339 327 317 316 318 318
288 41 45 51 344 32 254 337 274 198 159 144 4 158 35 8 34 319 343 356 20 26 31 48 58 71 68 61 58 55 52 45 37 36 33 25 14 348 332 326 323 320 312 310
56 320 49 305 317 39 314 62 58 75 108 125 316 338 58 17 337 338 7 30 28 11 22 70 71 71 66 53 48 44 31 31 23 21 20 16 1 345 338 339 333 327 319 317
349 357 328 21 1 11 20 43 354 13 17 217 45 331 55 14 13 5 33 31 24 19 39 61 59 52 29 22 18 6 2 4 10 7 0 355 349 348 342 335 324 314 312 313
34 344 10 346 48 313 12 40 90 289 334 319 330 229 109 69 43 60 37 56 56 49 51 59 62 176 353 11 13 2 5 353 357 358 357 353 349 339 325 314 312 304 307 297
26 287 344 35 354 350 32 48 123 105 74 282 318 211 260 318 29 36 66 51 34 23 22 11 288 283 349 0 13 9 357 342 334 340 339 336 331 323 318 313 309 310 305 207
106 320 14 310 303 49 65 123 32 33 18 306 305 264 231 66 17 65 67 42 24 10 3 346 335 336 340 352 345 331 328 321 319 327 333 327 324 325 320 319 316 314 296 227
82 86 301 330 19 357 19 52 63 106 105 217 290 269 194 180 206 137 174 246 350 337 330 323 320 324 317 311 324 324 320 324 338 348 338 331 333 336 336 333 339 357 349 327
8 133 278 138 115 321 114 128 97 123 215 181 14 269 217 189 186 219 208 231 299 299 315 314 319 327 328 327 337 340 347 349 350 329 325 343 347 358 5 11 20 19 12 35
182 25 360 27 34 16 94 166 111 103 90 226 221 266 192 229 273 301 304 323 310 309 321 330 336 345 346 351 344 345 348 346 336 340 344 360 5 15 14 7 3 9 8 14
86 126 173 213 224 188 245 215 190 178 235 245 241 274 283 284 294 309 311 284 294 300 298 328 346 355 346 319 338 349 337 337 337 330 343 351 346 339 348 342 333 338 345 350
93 223 206 260 268 276 272 253 227 222 232 241 273 276 278 288 297 303 317 303 303 308 342 5 343 316 318 340 327 322 330 335 338 337 339 338 319 350 336 311 321 315 318 322
28 241 63 290 336 320 283 273 250 237 247 249 260 268 282 292 215 268 309 300 311 351 11 316 282 308 313 331 330 319 316 331 320 303 15 13 341 328 341 331 331 331 333 342
115 137 111 269 327 310 291 241 186 202 205 233 259 302 6 306 291 311 318 335 36 32 341 315 312 309 327 326 324 320 319 316 251 162 306 313 329 338 344 341 343 340 337 339
132 97 136 293 336 256 255 234 237 248 273 263 280 333 345 332 321 317 31 70 46 346 301 287 313 319 321 326 321 308 268 234 235 270 305 323 335 338 339 343 341 337 336 336
128 133 180 245 219 306 295 289 143 173 283 44 38 346 330 323 322 358 56 51 298 251 269 304 313 312 320 320 313 254 265 266 264 286 318 331 339 331 339 342 334 329 326 330
61 71 138 159 253 267 249 356 12 154 284 142 353 339 317 313 292 315 348 303 279 282 296 303 307 294 302 313 296 278 282 282 289 304 315 322 327 332 336 331 322 322 320 322
322 336 243 248 256 267 261 296 256 13 325 273 310 307 304 334 15 280 281 277 287 293 302 306 284 281 299 303 305 294 283 268 269 282 287 311 319 325 322 311 309 316 318 314
234 203 215 170 239 276 201 273 225 324 291 268 314 21 76 318 354 295 283 291 306 313 314 309 291 297 298 297 292 276 269 283 277 254 268 293 307 311 298 297 304 317 318 316
270 200 195 185 231 260 236 280 351 314 2 15 60 289 32 173 269 296 300 308 304 309 313 312 299 297 292 284 268 270 277 285 272 239 259 279 303 299 295 296 309 315 324 324
262 184 224 204 237 259 268 304 89 127 149 203 52 229 244 283 308 306 302 303 315 319 319 318 310 301 293 298 296 282 297 291 252 252 264 287 300 314 308 301 307 314 325 331
226 174 222 248 285 278 239 201 185 174 89 157 223 265 287 296 298 294 296 312 315 317 324 325 314 303 300 315 305 307 304 276 261 267 276 286 307 317 318 319 318 326 335 335
176 221 219 259 301 300 8 31 98 137 178 289 323 310 301 296 300 313 312 313 315 325 328 327 321 311 315 316 320 342 356 341 303 294 295 297 314 335 329 330 325 345 353 354